| time (UTC) | temp F | wind direction | speed knots | gust knots | rain 1hr in | rain 24hr in | rain mn in | humidity % | barometer mb |
| 20260504214507 | 54 | 226 | 16.5 | 23.5 | 0.00 | 0.00 | 0.00 | 1 | 1011.9 |
| 20260504213012 | 54 | 217 | 16.5 | 23.5 | 0.00 | 0.00 | 0.00 | 1 | 1011.9 |
| 20260504211601 | 54 | 205 | 17.4 | 21.7 | 0.00 | 0.00 | 0.00 | 1 | 1012.0 |
| 20260504210059 | 54 | 209 | 16.5 | 23.5 | 0.00 | 0.00 | 0.00 | 1 | 1012.0 |
| 20260504204551 | 54 | 215 | 18.2 | 23.5 | 0.00 | 0.00 | 0.00 | 1 | 1012.0 |
| 20260504203059 | 54 | 212 | 16.5 | 21.7 | 0.00 | 0.00 | 0.00 | 1 | 1012.0 |
| 20260504201542 | 55 | 197 | 16.5 | 22.6 | 0.00 | 0.00 | 0.00 | 1 | 1012.0 |
| 20260504200037 | 55 | 220 | 20.0 | 25.2 | 0.00 | 0.00 | 0.00 | 1 | 1012.2 |
| 20260504194533 | 55 | 217 | 20.0 | 25.2 | 0.00 | 0.00 | 0.00 | 1 | 1012.3 |
| 20260504193028 | 55 | 215 | 18.2 | 26.9 | 0.00 | 0.00 | 0.00 | 1 | 1012.3 |
| 20260504191524 | 55 | 211 | 19.1 | 24.3 | 0.00 | 0.00 | 0.00 | 1 | 1012.3 |
| 20260504190017 | 55 | 254 | 19.1 | 24.3 | 0.00 | 0.00 | 0.00 | 1 | 1012.5 |
| 20260504184514 | 55 | 232 | 20.9 | 25.2 | 0.00 | 0.00 | 0.00 | 1 | 1012.7 |
| 20260504183009 | 55 | 232 | 20.9 | 25.2 | 0.00 | 0.00 | 0.00 | 1 | 1012.8 |
| 20260504181511 | 54 | 235 | 20.0 | 24.3 | 0.00 | 0.00 | 0.00 | 1 | 1013.0 |
| 20260504180059 | 54 | 212 | 18.2 | 23.5 | 0.00 | 0.00 | 0.00 | 1 | 1013.2 |
| 20260504174606 | 54 | 225 | 20.9 | 23.5 | 0.00 | 0.00 | 0.00 | 1 | 1013.3 |
| 20260504173050 | 54 | 234 | 19.1 | 23.5 | 0.00 | 0.00 | 0.00 | 1 | 1013.4 |
| 20260504171549 | 54 | 233 | 16.5 | 20.9 | 0.00 | 0.00 | 0.00 | 1 | 1013.6 |
| 20260504081507 | 53 | 251 | 13.9 | 18.2 | 0.00 | 0.00 | 0.00 | 1 | 1014.3 |
| 20260504050009 | 54 | 254 | 11.3 | 14.8 | 0.00 | 0.00 | 0.00 | 1 | 1013.5 |
| 20260504044512 | 54 | 258 | 11.3 | 14.8 | 0.00 | 0.00 | 0.00 | 1 | 1013.6 |
| 20260504043003 | 55 | 250 | 10.4 | 12.2 | 0.00 | 0.00 | 0.00 | 1 | 1013.5 |
| 20260504041558 | 54 | 250 | 8.7 | 11.3 | 0.00 | 0.00 | 0.00 | 1 | 1013.4 |
| 20260504040106 | 55 | 259 | 8.7 | 13.9 | 0.00 | 0.00 | 0.00 | 1 | 1013.5 |
| 20260504034610 | 55 | 255 | 10.4 | 13.9 | 0.00 | 0.00 | 0.00 | 1 | 1013.4 |
| 20260504033047 | 55 | 254 | 10.4 | 13.0 | 0.00 | 0.00 | 0.00 | 1 | 1013.2 |
| 20260504031545 | 55 | 262 | 9.6 | 12.2 | 0.00 | 0.00 | 0.00 | 1 | 1013.2 |
| 20260504024546 | 54 | 248 | 7.8 | 9.6 | 0.00 | 0.00 | 0.00 | 1 | 1013.3 |
| 20260504023039 | 53 | 265 | 2.6 | 4.3 | 0.00 | 0.00 | 0.00 | 1 | 1013.2 |
| 20260504021534 | 53 | 263 | 1.7 | 3.5 | 0.00 | 0.00 | 0.00 | 1 | 1013.1 |
| 20260504020031 | 53 | 293 | 1.7 | 3.5 | 0.00 | 0.00 | 0.00 | 1 | 1013.1 |
| 20260504014525 | 53 | 281 | 1.7 | 3.5 | 0.00 | 0.00 | 0.00 | 1 | 1013.0 |
| 20260504013028 | 53 | 271 | 1.7 | 3.5 | 0.00 | 0.00 | 0.00 | 1 | 1012.9 |
| 20260504011515 | 54 | 277 | 1.7 | 3.5 | 0.00 | 0.00 | 0.00 | 1 | 1012.8 |
| 20260504010011 | 54 | 276 | 1.7 | 3.5 | 0.00 | 0.00 | 0.00 | 1 | 1012.5 |
| 20260504004507 | 54 | 264 | 2.6 | 3.5 | 0.00 | 0.00 | 0.00 | 1 | 1012.4 |
| 20260504003002 | 55 | 266 | 1.7 | 3.5 | 0.00 | 0.00 | 0.00 | 1 | 1012.1 |
| 20260504001607 | 56 | 268 | 2.6 | 4.3 | 0.00 | 0.00 | 0.00 | 1 | 1012.0 |
| 20260504000057 | 56 | 283 | 2.6 | 6.1 | 0.00 | 0.00 | 0.00 | 1 | 1011.8 |
| 20260503234550 | 56 | 282 | 3.5 | 8.7 | 0.00 | 0.00 | 0.00 | 1 | 1011.6 |
| 20260503233049 | 57 | 304 | 3.5 | 9.6 | 0.00 | 0.00 | 0.00 | 1 | 1011.3 |
| 20260503231552 | 58 | 298 | 7.0 | 17.4 | 0.00 | 0.00 | 0.00 | 1 | 1011.2 |
| 20260503230047 | 58 | 293 | 3.5 | 12.2 | 0.00 | 0.00 | 0.00 | 1 | 1011.2 |
| 20260503224548 | 58 | 286 | 5.2 | 15.6 | 0.00 | 0.00 | 0.00 | 1 | 1011.1 |
| 20260503223046 | 58 | 323 | 3.5 | 16.5 | 0.00 | 0.00 | 0.00 | 1 | 1011.0 |
| 20260503221545 | 58 | 36 | 5.2 | 18.2 | 0.00 | 0.00 | 0.00 | 1 | 1010.9 |
| 20260503220039 | 58 | 330 | 7.8 | 14.8 | 0.00 | 0.00 | 0.00 | 1 | 1011.0 |